Year,Month,Day,Hour,Minute,Value (Times are PST for barometer in hPa)
2008,01,04,00,00,993.16
2008,01,04,00,01,993.03
2008,01,04,00,02,993.03
2008,01,04,00,03,993.03
2008,01,04,00,04,993.03
2008,01,04,00,05,993.03
2008,01,04,00,06,993.03
2008,01,04,00,07,993.03
2008,01,04,00,08,993.03
2008,01,04,00,09,993.03
2008,01,04,00,10,993.03
2008,01,04,00,11,993.03
2008,01,04,00,12,993.03
2008,01,04,00,13,993.03
2008,01,04,00,14,993.03
2008,01,04,00,15,992.78
2008,01,04,00,16,992.65
2008,01,04,00,17,992.65
2008,01,04,00,18,992.65
2008,01,04,00,19,992.65
2008,01,04,00,20,992.65
2008,01,04,00,21,992.65
2008,01,04,00,22,992.65
2008,01,04,00,23,992.65
2008,01,04,00,24,992.65
2008,01,04,00,25,992.65
2008,01,04,00,26,992.65
2008,01,04,00,27,992.65
2008,01,04,00,28,992.65
2008,01,04,00,29,992.65
2008,01,04,00,30,992.27
2008,01,04,00,31,992.08
2008,01,04,00,32,992.08
2008,01,04,00,33,992.08
2008,01,04,00,34,992.08
2008,01,04,00,35,992.08
2008,01,04,00,36,992.08
2008,01,04,00,37,992.08
2008,01,04,00,38,992.08
2008,01,04,00,39,992.08
2008,01,04,00,40,992.08
2008,01,04,00,41,992.08
2008,01,04,00,42,992.08
2008,01,04,00,43,992.08
2008,01,04,00,44,992.08
2008,01,04,00,45,991.95
2008,01,04,00,46,991.91
2008,01,04,00,47,991.91
2008,01,04,00,48,991.91
2008,01,04,00,49,991.91
2008,01,04,00,50,991.91
2008,01,04,00,51,991.91
2008,01,04,00,52,991.91
2008,01,04,00,53,991.91
2008,01,04,00,54,991.91
2008,01,04,00,55,991.91
2008,01,04,00,56,991.91
2008,01,04,00,57,991.91
2008,01,04,00,58,991.91
2008,01,04,00,59,991.91
2008,01,04,01,00,991.61
2008,01,04,01,01,991.53
2008,01,04,01,02,991.53
2008,01,04,01,03,991.53
2008,01,04,01,04,991.53
2008,01,04,01,05,991.53
2008,01,04,01,06,991.53
2008,01,04,01,07,991.53
2008,01,04,01,08,991.53
2008,01,04,01,09,991.53
2008,01,04,01,10,991.53
2008,01,04,01,11,991.53
2008,01,04,01,12,991.53
2008,01,04,01,13,991.53
2008,01,04,01,14,991.53
2008,01,04,01,15,991.58
2008,01,04,01,16,991.60
2008,01,04,01,17,991.60
2008,01,04,01,18,991.60
2008,01,04,01,19,991.60
2008,01,04,01,20,991.60
2008,01,04,01,21,991.60
2008,01,04,01,22,991.60
2008,01,04,01,23,991.60
2008,01,04,01,24,991.60
2008,01,04,01,25,991.60
2008,01,04,01,26,991.60
2008,01,04,01,27,991.60
2008,01,04,01,28,991.60
2008,01,04,01,29,991.60
2008,01,04,01,30,991.10
2008,01,04,01,31,990.96
2008,01,04,01,32,990.96
2008,01,04,01,33,990.96
2008,01,04,01,34,990.96
2008,01,04,01,35,990.96
2008,01,04,01,36,990.96
2008,01,04,01,37,990.96
2008,01,04,01,38,990.96
2008,01,04,01,39,990.96
2008,01,04,01,40,990.96
2008,01,04,01,41,990.96
2008,01,04,01,42,990.96
2008,01,04,01,43,990.96
2008,01,04,01,44,990.96
2008,01,04,01,45,991.01
2008,01,04,01,46,991.03
2008,01,04,01,47,991.03
2008,01,04,01,48,991.03
2008,01,04,01,49,991.03
2008,01,04,01,50,991.03
2008,01,04,01,51,991.03
2008,01,04,01,52,991.03
2008,01,04,01,53,991.03
2008,01,04,01,54,991.03
2008,01,04,01,55,991.03
2008,01,04,01,56,991.03
2008,01,04,01,57,991.03
2008,01,04,01,58,991.03
2008,01,04,01,59,991.03
2008,01,04,02,00,990.79
2008,01,04,02,01,990.72
2008,01,04,02,02,990.72
2008,01,04,02,03,990.72
2008,01,04,02,04,990.72
2008,01,04,02,05,990.72
2008,01,04,02,06,990.72
2008,01,04,02,07,990.72
2008,01,04,02,08,990.72
2008,01,04,02,09,990.72
2008,01,04,02,10,990.72
2008,01,04,02,11,990.72
2008,01,04,02,12,990.72
2008,01,04,02,13,990.72
2008,01,04,02,14,990.72
2008,01,04,02,15,990.51
2008,01,04,02,16,990.45
2008,01,04,02,17,990.45
2008,01,04,02,18,990.45
2008,01,04,02,19,990.45
2008,01,04,02,20,990.45
2008,01,04,02,21,990.45
2008,01,04,02,22,990.45
2008,01,04,02,23,990.45
2008,01,04,02,24,990.45
2008,01,04,02,25,990.45
2008,01,04,02,26,990.45
2008,01,04,02,27,990.45
2008,01,04,02,28,990.45
2008,01,04,02,29,990.45
2008,01,04,02,30,990.24
2008,01,04,02,31,990.18
2008,01,04,02,32,990.18
2008,01,04,02,33,990.18
2008,01,04,02,34,990.18
2008,01,04,02,35,990.18
2008,01,04,02,36,990.18
2008,01,04,02,37,990.18
2008,01,04,02,38,990.18
2008,01,04,02,39,990.18
2008,01,04,02,40,990.18
2008,01,04,02,41,990.18
2008,01,04,02,42,990.18
2008,01,04,02,43,990.18
2008,01,04,02,44,990.18
2008,01,04,02,45,989.60
2008,01,04,02,46,989.44
2008,01,04,02,47,989.44
2008,01,04,02,48,989.44
2008,01,04,02,49,989.44
2008,01,04,02,50,989.44
2008,01,04,02,51,989.44
2008,01,04,02,52,989.44
2008,01,04,02,53,989.44
2008,01,04,02,54,989.44
2008,01,04,02,55,989.44
2008,01,04,02,56,989.44
2008,01,04,02,57,989.44
2008,01,04,02,58,989.44
2008,01,04,02,59,989.44
2008,01,04,03,00,989.09
2008,01,04,03,01,988.96
2008,01,04,03,02,988.96
2008,01,04,03,03,988.96
2008,01,04,03,04,988.96
2008,01,04,03,05,988.96
2008,01,04,03,06,988.96
2008,01,04,03,07,988.96
2008,01,04,03,08,988.96
2008,01,04,03,09,988.96
2008,01,04,03,10,988.96
2008,01,04,03,11,988.96
2008,01,04,03,12,988.96
2008,01,04,03,13,988.96
2008,01,04,03,14,988.96
2008,01,04,03,15,988.68
2008,01,04,03,16,988.59
2008,01,04,03,17,988.59
2008,01,04,03,18,988.59
2008,01,04,03,19,988.59
2008,01,04,03,20,988.59
2008,01,04,03,21,988.59
2008,01,04,03,22,988.59
2008,01,04,03,23,988.59
2008,01,04,03,24,988.59
2008,01,04,03,25,988.59
2008,01,04,03,26,988.59
2008,01,04,03,27,988.59
2008,01,04,03,28,988.59
2008,01,04,03,29,988.59
2008,01,04,03,30,988.32
2008,01,04,03,31,988.22
2008,01,04,03,32,988.22
2008,01,04,03,33,988.22
2008,01,04,03,34,988.22
2008,01,04,03,35,988.22
2008,01,04,03,36,988.22
2008,01,04,03,37,988.22
2008,01,04,03,38,988.22
2008,01,04,03,39,988.22
2008,01,04,03,40,988.22
2008,01,04,03,41,988.22
2008,01,04,03,42,988.22
2008,01,04,03,43,988.22
2008,01,04,03,44,988.22
2008,01,04,03,45,987.87
2008,01,04,03,46,987.74
2008,01,04,03,47,987.74
2008,01,04,03,48,987.74
2008,01,04,03,49,987.74
2008,01,04,03,50,987.74
2008,01,04,03,51,987.74
2008,01,04,03,52,987.74
2008,01,04,03,53,987.74
2008,01,04,03,54,987.74
2008,01,04,03,55,987.74
2008,01,04,03,56,987.74
2008,01,04,03,57,987.74
2008,01,04,03,58,987.74
2008,01,04,03,59,987.74
2008,01,04,04,00,987.16
2008,01,04,04,01,986.93
2008,01,04,04,02,986.93
2008,01,04,04,03,986.93
2008,01,04,04,04,986.93
2008,01,04,04,05,986.93
2008,01,04,04,06,986.93
2008,01,04,04,07,986.93
2008,01,04,04,08,986.93
2008,01,04,04,09,986.93
2008,01,04,04,10,986.93
2008,01,04,04,11,986.93
2008,01,04,04,12,986.93
2008,01,04,04,13,986.93
2008,01,04,04,14,986.93
2008,01,04,04,15,986.47
2008,01,04,04,16,986.29
2008,01,04,04,17,986.29
2008,01,04,04,18,986.29
2008,01,04,04,19,986.29
2008,01,04,04,20,986.29
2008,01,04,04,21,986.29
2008,01,04,04,22,986.29
2008,01,04,04,23,986.29
2008,01,04,04,24,986.29
2008,01,04,04,25,986.29
2008,01,04,04,26,986.29
2008,01,04,04,27,986.29
2008,01,04,04,28,986.29
2008,01,04,04,29,986.29
2008,01,04,04,30,985.87
2008,01,04,04,31,985.64
2008,01,04,04,32,985.64
2008,01,04,04,33,985.64
2008,01,04,04,34,985.64
2008,01,04,04,35,985.64
2008,01,04,04,36,985.64
2008,01,04,04,37,985.64
2008,01,04,04,38,985.64
2008,01,04,04,39,985.64
2008,01,04,04,40,985.64
2008,01,04,04,41,985.64
2008,01,04,04,42,985.64
2008,01,04,04,43,985.64
2008,01,04,04,44,985.64
2008,01,04,04,45,985.07
2008,01,04,04,46,984.83
2008,01,04,04,47,984.83
2008,01,04,04,48,984.83
2008,01,04,04,49,984.83
2008,01,04,04,50,984.83
2008,01,04,04,51,984.83
2008,01,04,04,52,984.83
2008,01,04,04,53,984.83
2008,01,04,04,54,984.83
2008,01,04,04,55,984.83
2008,01,04,04,56,984.83
2008,01,04,04,57,984.83
2008,01,04,04,58,984.83
2008,01,04,04,59,984.83
2008,01,04,05,00,984.37
2008,01,04,05,01,984.19
2008,01,04,05,02,984.19
2008,01,04,05,03,984.19
2008,01,04,05,04,984.19
2008,01,04,05,05,984.19
2008,01,04,05,06,984.19
2008,01,04,05,07,984.19
2008,01,04,05,08,984.19
2008,01,04,05,09,984.19
2008,01,04,05,10,984.19
2008,01,04,05,11,984.19
2008,01,04,05,12,984.19
2008,01,04,05,13,984.19
2008,01,04,05,14,984.19
2008,01,04,05,15,983.53
2008,01,04,05,16,983.27
2008,01,04,05,17,983.27
2008,01,04,05,18,983.27
2008,01,04,05,19,983.27
2008,01,04,05,20,983.27
2008,01,04,05,21,983.27
2008,01,04,05,22,983.27
2008,01,04,05,23,983.27
2008,01,04,05,24,983.27
2008,01,04,05,25,983.27
2008,01,04,05,26,983.27
2008,01,04,05,27,983.27
2008,01,04,05,28,983.27
2008,01,04,05,29,983.27
2008,01,04,05,30,982.81
2008,01,04,05,31,982.63
2008,01,04,05,32,982.63
2008,01,04,05,33,982.63
2008,01,04,05,34,982.63
2008,01,04,05,35,982.63
2008,01,04,05,36,982.63
2008,01,04,05,37,982.63
2008,01,04,05,38,982.63
2008,01,04,05,39,982.63
2008,01,04,05,40,982.63
2008,01,04,05,41,982.63
2008,01,04,05,42,982.63
2008,01,04,05,43,982.63
2008,01,04,05,44,982.63
2008,01,04,05,45,982.41
2008,01,04,05,46,982.32
2008,01,04,05,47,982.32
2008,01,04,05,48,982.32
2008,01,04,05,49,982.32
2008,01,04,05,50,982.32
2008,01,04,05,51,982.32
2008,01,04,05,52,982.32
2008,01,04,05,53,982.32
2008,01,04,05,54,982.32
2008,01,04,05,55,982.32
2008,01,04,05,56,982.32
2008,01,04,05,57,982.32
2008,01,04,05,58,982.32
2008,01,04,05,59,982.32
2008,01,04,06,00,982.03
2008,01,04,06,01,981.88
2008,01,04,06,02,981.88
2008,01,04,06,03,981.88
2008,01,04,06,04,981.88
2008,01,04,06,05,981.88
2008,01,04,06,06,981.88
2008,01,04,06,07,981.88
2008,01,04,06,08,981.88
2008,01,04,06,09,981.88
2008,01,04,06,10,981.88
2008,01,04,06,11,981.88
2008,01,04,06,12,981.88
2008,01,04,06,13,981.88
2008,01,04,06,14,981.88
2008,01,04,06,15,981.29
2008,01,04,06,16,981.04
2008,01,04,06,17,981.04
2008,01,04,06,18,981.04
2008,01,04,06,19,981.04
2008,01,04,06,20,981.04
2008,01,04,06,21,981.04
2008,01,04,06,22,981.04
2008,01,04,06,23,981.04
2008,01,04,06,24,981.04
2008,01,04,06,25,981.04
2008,01,04,06,26,981.04
2008,01,04,06,27,981.04
2008,01,04,06,28,981.04
2008,01,04,06,29,981.04
2008,01,04,06,30,980.53
2008,01,04,06,31,980.19
2008,01,04,06,32,980.19
2008,01,04,06,33,980.19
2008,01,04,06,34,980.19
2008,01,04,06,35,980.19
2008,01,04,06,36,980.19
2008,01,04,06,37,980.19
2008,01,04,06,38,980.19
2008,01,04,06,39,980.19
2008,01,04,06,40,980.19
2008,01,04,06,41,980.19
2008,01,04,06,42,980.19
2008,01,04,06,43,980.19
2008,01,04,06,44,980.19
2008,01,04,06,45,979.75
2008,01,04,06,46,979.48
2008,01,04,06,47,979.48
2008,01,04,06,48,979.48
2008,01,04,06,49,979.48
2008,01,04,06,50,979.48
2008,01,04,06,51,979.48
2008,01,04,06,52,979.48
2008,01,04,06,53,979.48
2008,01,04,06,54,979.48
2008,01,04,06,55,979.48
2008,01,04,06,56,979.48
2008,01,04,06,57,979.48
2008,01,04,06,58,979.48
2008,01,04,06,59,979.48
2008,01,04,07,00,979.02
2008,01,04,07,01,978.73
2008,01,04,07,02,978.73
2008,01,04,07,03,978.73
2008,01,04,07,04,978.73
2008,01,04,07,05,978.73
2008,01,04,07,06,978.73
2008,01,04,07,07,978.73
2008,01,04,07,08,978.73
2008,01,04,07,09,978.73
2008,01,04,07,10,978.73
2008,01,04,07,11,978.73
2008,01,04,07,12,978.73
2008,01,04,07,13,978.73
2008,01,04,07,14,978.73
2008,01,04,07,15,978.22
2008,01,04,07,16,978.02
2008,01,04,07,17,978.02
2008,01,04,07,18,978.02
2008,01,04,07,19,978.02
2008,01,04,07,20,978.02
2008,01,04,07,21,978.02
2008,01,04,07,22,978.02
2008,01,04,07,23,978.02
2008,01,04,07,24,978.02
2008,01,04,07,25,978.02
2008,01,04,07,26,978.02
2008,01,04,07,27,978.02
2008,01,04,07,28,978.02
2008,01,04,07,29,978.02
2008,01,04,07,30,977.68
2008,01,04,07,31,977.55
2008,01,04,07,32,977.55
2008,01,04,07,33,977.55
2008,01,04,07,34,977.55
2008,01,04,07,35,977.55
2008,01,04,07,36,977.55
2008,01,04,07,37,977.55
2008,01,04,07,38,977.55
2008,01,04,07,39,977.55
2008,01,04,07,40,977.55
2008,01,04,07,41,977.55
2008,01,04,07,42,977.55
2008,01,04,07,43,977.55
2008,01,04,07,44,977.55
2008,01,04,07,45,977.28
2008,01,04,07,46,977.14
2008,01,04,07,47,977.14
2008,01,04,07,48,977.14
2008,01,04,07,49,977.14
2008,01,04,07,50,977.14
2008,01,04,07,51,977.14
2008,01,04,07,52,977.14
2008,01,04,07,53,977.14
2008,01,04,07,54,977.14
2008,01,04,07,55,977.14
2008,01,04,07,56,977.14
2008,01,04,07,57,977.14
2008,01,04,07,58,977.14
2008,01,04,07,59,977.14
2008,01,04,08,00,976.89
2008,01,04,08,01,976.80
2008,01,04,08,02,976.80
2008,01,04,08,03,976.80
2008,01,04,08,04,976.80
2008,01,04,08,05,976.80
2008,01,04,08,06,976.80
2008,01,04,08,07,976.80
2008,01,04,08,08,976.80
2008,01,04,08,09,976.80
2008,01,04,08,10,976.80
2008,01,04,08,11,976.80
2008,01,04,08,12,976.80
2008,01,04,08,13,976.80
2008,01,04,08,14,976.80
2008,01,04,08,15,976.73
2008,01,04,08,16,976.33
2008,01,04,08,17,976.33
2008,01,04,08,18,976.33
2008,01,04,08,19,976.33
2008,01,04,08,20,976.33
2008,01,04,08,21,976.33
2008,01,04,08,22,976.33
2008,01,04,08,23,976.33
2008,01,04,08,24,976.33
2008,01,04,08,25,976.33
2008,01,04,08,26,976.33
2008,01,04,08,27,976.33
2008,01,04,08,28,976.33
2008,01,04,08,29,976.33
2008,01,04,08,30,976.02
2008,01,04,08,31,975.86
2008,01,04,08,32,975.86
2008,01,04,08,33,975.86
2008,01,04,08,34,975.86
2008,01,04,08,35,975.86
2008,01,04,08,36,975.86
2008,01,04,08,37,975.86
2008,01,04,08,38,975.86
2008,01,04,08,39,975.86
2008,01,04,08,40,975.86
2008,01,04,08,41,975.86
2008,01,04,08,42,975.86
2008,01,04,08,43,975.86
2008,01,04,08,44,975.86
2008,01,04,08,45,975.77
2008,01,04,08,46,975.72
2008,01,04,08,47,975.72
2008,01,04,08,48,975.72
2008,01,04,08,49,975.72
2008,01,04,08,50,975.72
2008,01,04,08,51,975.72
2008,01,04,08,52,975.72
2008,01,04,08,53,975.72
2008,01,04,08,54,975.72
2008,01,04,08,55,975.72
2008,01,04,08,56,975.72
2008,01,04,08,57,975.72
2008,01,04,08,58,975.72
2008,01,04,08,59,975.72
2008,01,04,09,00,975.25
2008,01,04,09,01,975.01
2008,01,04,09,02,975.01
2008,01,04,09,03,975.01
2008,01,04,09,04,975.01
2008,01,04,09,05,975.01
2008,01,04,09,06,975.01
2008,01,04,09,07,975.01
2008,01,04,09,08,975.01
2008,01,04,09,09,975.01
2008,01,04,09,10,975.01
2008,01,04,09,11,975.01
2008,01,04,09,12,975.01
2008,01,04,09,13,975.01
2008,01,04,09,14,975.01
2008,01,04,09,15,974.88
2008,01,04,09,16,974.81
2008,01,04,09,17,974.81
2008,01,04,09,18,974.81
2008,01,04,09,19,974.81
2008,01,04,09,20,974.81
2008,01,04,09,21,974.81
2008,01,04,09,22,974.81
2008,01,04,09,23,974.81
2008,01,04,09,24,974.81
2008,01,04,09,25,974.81
2008,01,04,09,26,974.81
2008,01,04,09,27,974.81
2008,01,04,09,28,974.81
2008,01,04,09,29,974.81
2008,01,04,09,30,974.81
2008,01,04,09,31,974.81
2008,01,04,09,32,974.81
2008,01,04,09,33,974.81
2008,01,04,09,34,974.81
2008,01,04,09,35,974.81
2008,01,04,09,36,974.81
2008,01,04,09,37,974.81
2008,01,04,09,38,974.81
2008,01,04,09,39,974.81
2008,01,04,09,40,974.81
2008,01,04,09,41,974.81
2008,01,04,09,42,974.81
2008,01,04,09,43,974.81
2008,01,04,09,44,974.81
2008,01,04,09,45,974.49
2008,01,04,09,46,974.33
2008,01,04,09,47,974.33
2008,01,04,09,48,974.33
2008,01,04,09,49,974.33
2008,01,04,09,50,974.33
2008,01,04,09,51,974.33
2008,01,04,09,52,974.33
2008,01,04,09,53,974.33
2008,01,04,09,54,974.33
2008,01,04,09,55,974.33
2008,01,04,09,56,974.33
2008,01,04,09,57,974.33
2008,01,04,09,58,974.33
2008,01,04,09,59,974.33
2008,01,04,10,00,974.00
2008,01,04,10,01,973.79
2008,01,04,10,02,973.79
2008,01,04,10,03,973.79
2008,01,04,10,04,973.79
2008,01,04,10,05,973.79
2008,01,04,10,06,973.79
2008,01,04,10,07,973.79
2008,01,04,10,08,973.79
2008,01,04,10,09,973.79
2008,01,04,10,10,973.79
2008,01,04,10,11,973.79
2008,01,04,10,12,973.79
2008,01,04,10,13,973.79
2008,01,04,10,14,973.79
2008,01,04,10,15,973.63
2008,01,04,10,16,973.55
2008,01,04,10,17,973.55
2008,01,04,10,18,973.55
2008,01,04,10,19,973.55
2008,01,04,10,20,973.55
2008,01,04,10,21,973.55
2008,01,04,10,22,973.55
2008,01,04,10,23,973.55
2008,01,04,10,24,973.55
2008,01,04,10,25,973.55
2008,01,04,10,26,973.55
2008,01,04,10,27,973.55
2008,01,04,10,28,973.55
2008,01,04,10,29,973.55
2008,01,04,10,30,973.30
2008,01,04,10,31,973.18
2008,01,04,10,32,973.18
2008,01,04,10,33,973.18
2008,01,04,10,34,973.18
2008,01,04,10,35,973.18
2008,01,04,10,36,973.18
2008,01,04,10,37,973.18
2008,01,04,10,38,973.18
2008,01,04,10,39,973.18
2008,01,04,10,40,973.18
2008,01,04,10,41,973.18
2008,01,04,10,42,973.18
2008,01,04,10,43,973.18
2008,01,04,10,44,973.18
2008,01,04,10,45,973.20
2008,01,04,10,46,973.21
2008,01,04,10,47,973.21
2008,01,04,10,48,973.21
2008,01,04,10,49,973.21
2008,01,04,10,50,973.21
2008,01,04,10,51,973.21
2008,01,04,10,52,973.21
2008,01,04,10,53,973.21
2008,01,04,10,54,973.21
2008,01,04,10,55,973.21
2008,01,04,10,56,973.21
2008,01,04,10,57,973.21
2008,01,04,10,58,973.21
2008,01,04,10,59,973.21
2008,01,04,11,00,972.57
2008,01,04,11,01,972.54
2008,01,04,11,02,972.54
2008,01,04,11,03,972.54
2008,01,04,11,04,972.54
2008,01,04,11,05,972.54
2008,01,04,11,06,972.54
2008,01,04,11,07,972.54
2008,01,04,11,08,972.54
2008,01,04,11,09,972.54
2008,01,04,11,10,972.54
2008,01,04,11,11,972.54
2008,01,04,11,12,972.54
2008,01,04,11,13,972.54
2008,01,04,11,14,972.54
2008,01,04,11,15,972.34
2008,01,04,11,16,972.33
2008,01,04,11,17,972.33
2008,01,04,11,18,972.33
2008,01,04,11,19,972.33
2008,01,04,11,20,972.33
2008,01,04,11,21,972.33
2008,01,04,11,22,972.33
2008,01,04,11,23,972.33
2008,01,04,11,24,972.33
2008,01,04,11,25,972.33
2008,01,04,11,26,972.33
2008,01,04,11,27,972.33
2008,01,04,11,28,972.33
2008,01,04,11,29,972.33
2008,01,04,11,30,972.14
2008,01,04,11,31,972.13
2008,01,04,11,32,972.13
2008,01,04,11,33,972.13
2008,01,04,11,34,972.13
2008,01,04,11,35,972.13
2008,01,04,11,36,972.13
2008,01,04,11,37,972.13
2008,01,04,11,38,972.13
2008,01,04,11,39,972.13
2008,01,04,11,40,972.13
2008,01,04,11,41,972.13
2008,01,04,11,42,972.13
2008,01,04,11,43,972.13
2008,01,04,11,44,972.13
2008,01,04,11,45,972.16
2008,01,04,11,46,972.16
2008,01,04,11,47,972.16
2008,01,04,11,48,972.16
2008,01,04,11,49,972.16
2008,01,04,11,50,972.16
2008,01,04,11,51,972.16
2008,01,04,11,52,972.16
2008,01,04,11,53,972.16
2008,01,04,11,54,972.16
2008,01,04,11,55,972.16
2008,01,04,11,56,972.16
2008,01,04,11,57,972.16
2008,01,04,11,58,972.16
2008,01,04,11,59,972.16
2008,01,04,12,00,972.06
2008,01,04,12,01,972.06
2008,01,04,12,02,972.06
2008,01,04,12,03,972.06
2008,01,04,12,04,972.06
2008,01,04,12,05,972.06
2008,01,04,12,06,972.06
2008,01,04,12,07,972.06
2008,01,04,12,08,972.06
2008,01,04,12,09,972.06
2008,01,04,12,10,972.06
2008,01,04,12,11,972.06
2008,01,04,12,12,972.06
2008,01,04,12,13,972.06
2008,01,04,12,14,972.06
2008,01,04,12,15,971.97
2008,01,04,12,16,971.96
2008,01,04,12,17,971.96
2008,01,04,12,18,971.96
2008,01,04,12,19,971.96
2008,01,04,12,20,971.96
2008,01,04,12,21,971.96
2008,01,04,12,22,971.96
2008,01,04,12,23,971.96
2008,01,04,12,24,971.96
2008,01,04,12,25,971.96
2008,01,04,12,26,971.96
2008,01,04,12,27,971.96
2008,01,04,12,28,971.96
2008,01,04,12,29,971.96
2008,01,04,12,30,971.65
2008,01,04,12,31,971.62
2008,01,04,12,32,971.62
2008,01,04,12,33,971.62
2008,01,04,12,34,971.62
2008,01,04,12,35,971.62
2008,01,04,12,36,971.62
2008,01,04,12,37,971.62
2008,01,04,12,38,971.62
2008,01,04,12,39,971.62
2008,01,04,12,40,971.62
2008,01,04,12,41,971.62
2008,01,04,12,42,971.62
2008,01,04,12,43,971.62
2008,01,04,12,44,971.62
2008,01,04,12,45,971.86
2008,01,04,12,46,971.86
2008,01,04,12,47,971.86
2008,01,04,12,48,971.86
2008,01,04,12,49,971.86
2008,01,04,12,50,971.86
2008,01,04,12,51,971.86
2008,01,04,12,52,971.86
2008,01,04,12,53,971.86
2008,01,04,12,54,971.86
2008,01,04,12,55,971.86
2008,01,04,12,56,971.86
2008,01,04,12,57,971.86
2008,01,04,12,58,971.86
2008,01,04,12,59,971.86
2008,01,04,13,00,972.03
2008,01,04,13,01,972.03
2008,01,04,13,02,972.03
2008,01,04,13,03,972.03
2008,01,04,13,04,972.03
2008,01,04,13,05,972.03
2008,01,04,13,06,972.03
2008,01,04,13,07,972.03
2008,01,04,13,08,972.03
2008,01,04,13,09,972.03
2008,01,04,13,10,972.03
2008,01,04,13,11,972.03
2008,01,04,13,12,972.03
2008,01,04,13,13,972.03
2008,01,04,13,14,972.03
2008,01,04,13,15,972.12
2008,01,04,13,16,972.13
2008,01,04,13,17,972.13
2008,01,04,13,18,972.13
2008,01,04,13,19,972.13
2008,01,04,13,20,972.13
2008,01,04,13,21,972.13
2008,01,04,13,22,972.13
2008,01,04,13,23,972.13
2008,01,04,13,24,972.13
2008,01,04,13,25,972.13
2008,01,04,13,26,972.13
2008,01,04,13,27,972.13
2008,01,04,13,28,972.13
2008,01,04,13,29,972.13
2008,01,04,13,30,971.58
2008,01,04,13,31,971.52
2008,01,04,13,32,971.52
2008,01,04,13,33,971.52
2008,01,04,13,34,971.52
2008,01,04,13,35,971.52
2008,01,04,13,36,971.52
2008,01,04,13,37,971.52
2008,01,04,13,38,971.52
2008,01,04,13,39,971.52
2008,01,04,13,40,971.52
2008,01,04,13,41,971.52
2008,01,04,13,42,971.52
2008,01,04,13,43,971.52
2008,01,04,13,44,971.52
2008,01,04,13,45,971.59
2008,01,04,13,46,971.59
2008,01,04,13,47,971.59
2008,01,04,13,48,971.59
2008,01,04,13,49,971.59
2008,01,04,13,50,971.59
2008,01,04,13,51,971.59
2008,01,04,13,52,971.59
2008,01,04,13,53,971.59
2008,01,04,13,54,971.59
2008,01,04,13,55,971.59
2008,01,04,13,56,971.59
2008,01,04,13,57,971.59
2008,01,04,13,58,971.59
2008,01,04,13,59,971.59
2008,01,04,14,00,971.59
2008,01,04,14,01,971.59
2008,01,04,14,02,971.59
2008,01,04,14,03,971.59
2008,01,04,14,04,971.59
2008,01,04,14,05,971.59
2008,01,04,14,06,971.59
2008,01,04,14,07,971.59
2008,01,04,14,08,971.59
2008,01,04,14,09,971.59
2008,01,04,14,10,971.59
2008,01,04,14,11,971.59
2008,01,04,14,12,971.59
2008,01,04,14,13,971.59
2008,01,04,14,14,971.59
2008,01,04,14,15,971.83
2008,01,04,14,16,971.83
2008,01,04,14,17,971.83
2008,01,04,14,18,971.83
2008,01,04,14,19,971.83
2008,01,04,14,20,971.83
2008,01,04,14,21,971.83
2008,01,04,14,22,971.83
2008,01,04,14,23,971.83
2008,01,04,14,24,971.83
2008,01,04,14,25,971.83
2008,01,04,14,26,971.83
2008,01,04,14,27,971.83
2008,01,04,14,28,971.83
2008,01,04,14,29,971.83
2008,01,04,14,30,971.83
2008,01,04,14,31,971.83
2008,01,04,14,32,971.83
2008,01,04,14,33,971.83
2008,01,04,14,34,971.83
2008,01,04,14,35,971.83
2008,01,04,14,36,971.83
2008,01,04,14,37,971.83
2008,01,04,14,38,971.83
2008,01,04,14,39,971.83
2008,01,04,14,40,971.83
2008,01,04,14,41,971.83
2008,01,04,14,42,971.83
2008,01,04,14,43,971.83
2008,01,04,14,44,971.83
2008,01,04,14,45,972.03
2008,01,04,14,46,972.03
2008,01,04,14,47,972.03
2008,01,04,14,48,972.03
2008,01,04,14,49,972.03
2008,01,04,14,50,972.03
2008,01,04,14,51,972.03
2008,01,04,14,52,972.03
2008,01,04,14,53,972.03
2008,01,04,14,54,972.03
2008,01,04,14,55,972.03
2008,01,04,14,56,972.03
2008,01,04,14,57,972.03
2008,01,04,14,58,972.03
2008,01,04,14,59,972.03
2008,01,04,15,00,971.72
2008,01,04,15,01,971.72
2008,01,04,15,02,971.72
2008,01,04,15,03,971.72
2008,01,04,15,04,971.72
2008,01,04,15,05,971.72
2008,01,04,15,06,971.72
2008,01,04,15,07,971.72
2008,01,04,15,08,971.72
2008,01,04,15,09,971.72
2008,01,04,15,10,971.72
2008,01,04,15,11,971.72
2008,01,04,15,12,971.72
2008,01,04,15,13,971.72
2008,01,04,15,14,971.72
2008,01,04,15,15,971.61
2008,01,04,15,16,971.59
2008,01,04,15,17,971.59
2008,01,04,15,18,971.59
2008,01,04,15,19,971.59
2008,01,04,15,20,971.59
2008,01,04,15,21,971.59
2008,01,04,15,22,971.59
2008,01,04,15,23,971.59
2008,01,04,15,24,971.59
2008,01,04,15,25,971.59
2008,01,04,15,26,971.59
2008,01,04,15,27,971.59
2008,01,04,15,28,971.59
2008,01,04,15,29,971.59
2008,01,04,15,30,971.62
2008,01,04,15,31,971.62
2008,01,04,15,32,971.62
2008,01,04,15,33,971.62
2008,01,04,15,34,971.62
2008,01,04,15,35,971.62
2008,01,04,15,36,971.62
2008,01,04,15,37,971.62
2008,01,04,15,38,971.62
2008,01,04,15,39,971.62
2008,01,04,15,40,971.62
2008,01,04,15,41,971.62
2008,01,04,15,42,971.62
2008,01,04,15,43,971.62
2008,01,04,15,44,971.62
2008,01,04,15,45,971.22
2008,01,04,15,46,971.22
2008,01,04,15,47,971.22
2008,01,04,15,48,971.22
2008,01,04,15,49,971.22
2008,01,04,15,50,971.22
2008,01,04,15,51,971.22
2008,01,04,15,52,971.22
2008,01,04,15,53,971.22
2008,01,04,15,54,971.22
2008,01,04,15,55,971.22
2008,01,04,15,56,971.22
2008,01,04,15,57,971.22
2008,01,04,15,58,971.22
2008,01,04,15,59,971.22
2008,01,04,16,00,970.84
2008,01,04,16,01,970.84
2008,01,04,16,02,970.84
2008,01,04,16,03,970.84
2008,01,04,16,04,970.84
2008,01,04,16,05,970.84
2008,01,04,16,06,970.84
2008,01,04,16,07,970.84
2008,01,04,16,08,970.84
2008,01,04,16,09,970.84
2008,01,04,16,10,970.84
2008,01,04,16,11,970.84
2008,01,04,16,12,970.84
2008,01,04,16,13,970.84
2008,01,04,16,14,970.84
2008,01,04,16,15,970.71
2008,01,04,16,16,970.71
2008,01,04,16,17,970.71
2008,01,04,16,18,970.71
2008,01,04,16,19,970.71
2008,01,04,16,20,970.71
2008,01,04,16,21,970.71
2008,01,04,16,22,970.71
2008,01,04,16,23,970.71
2008,01,04,16,24,970.71
2008,01,04,16,25,970.71
2008,01,04,16,26,970.71
2008,01,04,16,27,970.71
2008,01,04,16,28,970.71
2008,01,04,16,29,970.71
2008,01,04,16,30,970.47
2008,01,04,16,31,970.47
2008,01,04,16,32,970.47
2008,01,04,16,33,970.47
2008,01,04,16,34,970.47
2008,01,04,16,35,970.47
2008,01,04,16,36,970.47